{"data":{"norad_id":67393,"intl_designator":"2026-004AG","name":"HAWK-13C","alt_names":[],"object_type":"PAYLOAD","status":"ACTIVE","operator":null,"country":"US","launch_date":"2026-01-11","launch_site_code":"AFWTR","launch_vehicle":null,"mission":null,"orbit_class":"UNKNOWN","rcs_meters":null,"size_class":null,"mass_kg":null,"dimensions":null,"purposes":[],"wikipedia_slug":null,"has_3d_model":false,"image_url":null,"decayed_at":null,"tle_current":{"epoch":"2026-09-20T22:41:39.889248Z","epoch_age_seconds":61887,"freshness":"FRESH","line1":"1 67393U 26004AG  26263.94560057  .00002721  00000+0  13023-3 0  9998","line2":"2 67393  97.4654 262.0711 0005807  21.5220 338.6257 15.19806188 38301","mean_motion":15.19806188,"eccentricity":0.0005807,"inclination_deg":97.4654,"raan_deg":262.0711,"arg_perigee_deg":21.522,"mean_anomaly_deg":338.6257,"bstar":0.00013023,"rev_number":3830,"period_min":94.748923341007,"perigee_km":502.42798460916,"apogee_km":510.42371590345,"semimajor_km":6884.5628502563,"source":"CELESTRAK","updated_at":"2026-09-21T09:00:16.599559Z"}}}